TimeMDT,TemperatureF,Dew PointF,Humidity,Sea Level PressureIn,VisibilityMPH,Wind Direction,Wind SpeedMPH,Gust SpeedMPH,PrecipitationIn,Events,Conditions,WindDirDegrees,DateUTC
12:15 AM,45.5,11.8,26,30.27,10.0,NW,3.5,-,N/A,,Clear,320,2014-03-10 06:15:00
12:35 AM,45.7,11.1,25,30.27,10.0,Calm,Calm,-,N/A,,Clear,0,2014-03-10 06:35:00
12:55 AM,44.8,9.9,24,30.27,10.0,Calm,Calm,-,N/A,,Clear,0,2014-03-10 06:55:00
1:15 AM,45.9,8.6,22,30.26,10.0,Calm,Calm,-,N/A,,Clear,0,2014-03-10 07:15:00
1:35 AM,45.3,9.1,23,30.27,10.0,Calm,Calm,-,N/A,,Clear,0,2014-03-10 07:35:00
1:55 AM,44.6,9.3,24,30.27,10.0,Calm,Calm,-,N/A,,Clear,0,2014-03-10 07:55:00
2:15 AM,44.1,9.5,24,30.26,10.0,Calm,Calm,-,N/A,,Clear,0,2014-03-10 08:15:00
2:35 AM,43.9,9.3,24,30.25,10.0,Calm,Calm,-,N/A,,Clear,0,2014-03-10 08:35:00
2:55 AM,43.0,9.5,25,30.25,10.0,Calm,Calm,-,N/A,,Clear,0,2014-03-10 08:55:00
3:15 AM,41.4,11.1,29,30.23,10.0,Calm,Calm,-,N/A,,Clear,0,2014-03-10 09:15:00
3:35 AM,41.0,11.3,30,30.23,10.0,Calm,Calm,-,N/A,,Clear,0,2014-03-10 09:35:00
3:55 AM,41.0,12.2,31,30.23,10.0,Calm,Calm,-,N/A,,Clear,0,2014-03-10 09:55:00
4:15 AM,41.9,12.0,30,30.22,10.0,Calm,Calm,-,N/A,,Clear,0,2014-03-10 10:15:00
4:35 AM,41.0,11.3,30,30.21,10.0,North,4.6,-,N/A,,Clear,360,2014-03-10 10:35:00
4:55 AM,40.5,12.0,31,30.21,10.0,Calm,Calm,-,N/A,,Clear,0,2014-03-10 10:55:00
5:15 AM,39.4,11.3,32,30.21,10.0,North,3.5,-,N/A,,Clear,360,2014-03-10 11:15:00
5:35 AM,37.6,12.2,35,30.20,10.0,North,3.5,-,N/A,,Clear,350,2014-03-10 11:35:00
5:55 AM,37.6,10.9,33,30.20,10.0,North,4.6,-,N/A,,Clear,350,2014-03-10 11:55:00
6:15 AM,37.6,9.3,31,30.20,10.0,North,4.6,-,N/A,,Clear,360,2014-03-10 12:15:00
6:35 AM,38.1,8.1,29,30.19,10.0,North,3.5,-,N/A,,Clear,10,2014-03-10 12:35:00
6:55 AM,35.6,11.3,37,30.19,10.0,Calm,Calm,-,N/A,,Clear,0,2014-03-10 12:55:00
7:15 AM,36.0,10.9,36,30.19,10.0,Calm,Calm,-,N/A,,Clear,0,2014-03-10 13:15:00
7:35 AM,36.5,9.9,33,30.19,10.0,SSE,3.5,-,N/A,,Clear,150,2014-03-10 13:35:00
7:55 AM,37.6,8.6,30,30.19,10.0,Calm,Calm,-,N/A,,Clear,0,2014-03-10 13:55:00
8:15 AM,39.0,8.1,28,30.19,10.0,Calm,Calm,-,N/A,,Clear,0,2014-03-10 14:15:00
8:35 AM,40.6,9.7,28,30.19,10.0,Calm,Calm,-,N/A,,Clear,0,2014-03-10 14:35:00
8:55 AM,40.1,12.7,33,30.19,10.0,Calm,Calm,-,N/A,,Clear,0,2014-03-10 14:55:00
9:15 AM,41.0,11.5,30,30.19,10.0,Calm,Calm,-,N/A,,Clear,0,2014-03-10 15:15:00
9:35 AM,43.7,10.8,26,30.19,10.0,Calm,Calm,-,N/A,,Clear,0,2014-03-10 15:35:00
9:55 AM,45.1,11.3,25,30.19,10.0,Calm,Calm,-,N/A,,Clear,0,2014-03-10 15:55:00
10:15 AM,46.2,11.3,24,30.18,10.0,Calm,Calm,-,N/A,,Clear,0,2014-03-10 16:15:00
10:35 AM,48.0,12.2,24,30.18,10.0,Calm,Calm,-,N/A,,Clear,0,2014-03-10 16:35:00
10:55 AM,49.1,12.4,23,30.18,10.0,Calm,Calm,-,N/A,,Clear,0,2014-03-10 16:55:00
11:15 AM,50.0,11.7,21,30.17,10.0,Calm,Calm,-,N/A,,Clear,0,2014-03-10 17:15:00
11:35 AM,51.6,11.8,20,30.17,10.0,Calm,Calm,-,N/A,,Clear,0,2014-03-10 17:35:00
11:55 AM,54.0,10.8,18,30.16,10.0,Calm,Calm,-,N/A,,Clear,0,2014-03-10 17:55:00
12:15 PM,54.9,11.3,18,30.15,10.0,ENE,3.5,-,N/A,,Clear,70,2014-03-10 18:15:00
12:35 PM,55.8,7.2,14,30.14,10.0,Calm,Calm,-,N/A,,Clear,0,2014-03-10 18:35:00
12:55 PM,57.4,9.3,15,30.13,10.0,ENE,4.6,-,N/A,,Clear,60,2014-03-10 18:55:00
1:15 PM,58.3,8.4,14,30.12,10.0,East,4.6,-,N/A,,Clear,100,2014-03-10 19:15:00
1:35 PM,59.0,6.1,12,30.11,10.0,ESE,4.6,-,N/A,,Clear,120,2014-03-10 19:35:00
1:55 PM,60.1,7.0,12,30.09,10.0,SSE,5.8,-,N/A,,Clear,150,2014-03-10 19:55:00
2:15 PM,60.3,9.5,13,30.08,10.0,SE,9.2,-,N/A,,Clear,140,2014-03-10 20:15:00
2:35 PM,60.4,9.7,13,30.07,10.0,SSE,8.1,-,N/A,,Clear,150,2014-03-10 20:35:00
2:55 PM,61.3,9.3,13,30.05,10.0,SE,6.9,-,N/A,,Clear,130,2014-03-10 20:55:00
3:15 PM,61.0,7.7,12,30.04,10.0,South,8.1,-,N/A,,Clear,180,2014-03-10 21:15:00
3:35 PM,61.7,3.9,10,30.04,10.0,SSE,6.9,-,N/A,,Clear,150,2014-03-10 21:35:00
3:55 PM,63.0,1.0,8,30.03,10.0,East,6.9,-,N/A,,Clear,100,2014-03-10 21:55:00
4:15 PM,63.1,1.9,9,30.03,10.0,SSE,10.4,-,N/A,,Clear,160,2014-03-10 22:15:00
4:35 PM,63.5,3.6,9,30.02,10.0,SSE,6.9,-,N/A,,Clear,150,2014-03-10 22:35:00
4:55 PM,63.1,3.0,9,30.02,10.0,SE,5.8,-,N/A,,Clear,140,2014-03-10 22:55:00
5:15 PM,62.8,1.8,9,30.01,10.0,ESE,4.6,-,N/A,,Clear,120,2014-03-10 23:15:00
5:35 PM,63.1,0.3,8,30.01,10.0,Calm,Calm,-,N/A,,Clear,0,2014-03-10 23:35:00
5:55 PM,63.1,-0.4,8,30.01,10.0,Calm,Calm,-,N/A,,Clear,0,2014-03-10 23:55:00
6:15 PM,63.0,-39.1,4,30.01,10.0,West,17.3,-,N/A,,Clear,260,2014-03-11 00:15:00
6:35 PM,61.5,-32.3,4,30.01,10.0,WSW,10.4,-,N/A,,Clear,250,2014-03-11 00:35:00
6:55 PM,60.8,-39.1,4,30.01,10.0,West,12.7,-,N/A,,Clear,270,2014-03-11 00:55:00
7:15 PM,59.9,-36.0,4,30.01,10.0,WSW,9.2,-,N/A,,Clear,240,2014-03-11 01:15:00
7:35 PM,58.1,-30.6,4,30.01,10.0,WSW,9.2,-,N/A,,Clear,240,2014-03-11 01:35:00
7:55 PM,57.6,-31.0,4,30.01,10.0,WSW,8.1,-,N/A,,Clear,240,2014-03-11 01:55:00
8:15 PM,56.5,-27.8,4,30.01,10.0,West,8.1,-,N/A,,Clear,270,2014-03-11 02:15:00
8:35 PM,55.9,-24.3,4,30.01,10.0,WSW,8.1,-,N/A,,Clear,240,2014-03-11 02:35:00
8:55 PM,56.1,-21.1,4,30.00,10.0,WSW,10.4,-,N/A,,Clear,250,2014-03-11 02:55:00
9:15 PM,55.2,-17.3,5,30.00,10.0,WSW,12.7,-,N/A,,Clear,250,2014-03-11 03:15:00
9:35 PM,54.5,-16.4,5,29.99,10.0,West,9.2,-,N/A,,Clear,260,2014-03-11 03:35:00
9:55 PM,54.3,-15.3,5,29.99,10.0,WSW,10.4,-,N/A,,Clear,240,2014-03-11 03:55:00
10:15 PM,55.0,-13.0,6,29.99,10.0,SW,10.4,-,N/A,,Clear,220,2014-03-11 04:15:00
10:35 PM,55.4,-11.2,6,29.99,10.0,SW,8.1,-,N/A,,Clear,220,2014-03-11 04:35:00
10:55 PM,55.0,-10.3,7,29.98,10.0,South,4.6,-,N/A,,Clear,190,2014-03-11 04:55:00
11:15 PM,54.3,-8.5,7,29.98,10.0,SW,10.4,-,N/A,,Clear,220,2014-03-11 05:15:00
11:35 PM,52.9,-6.2,9,29.99,10.0,Calm,Calm,-,N/A,,Clear,0,2014-03-11 05:35:00
11:55 PM,51.6,-4.5,10,29.98,10.0,North,4.6,-,N/A,,Clear,350,2014-03-11 05:55:00